owner,sensor,date,latitude,longitude,vertical_datum,wind_speed,wind_to_direction,wind_speed_of_gust,qcFlag 
TCOON,ioos:station:TCOON:005:1,2013-06-01T00:00:00Z,27.6346,-97.2370,0.0,9.8,120.0,,'1111122,1111122,1111122' 
TCOON,ioos:station:TCOON:005:1,2013-06-01T00:06:00Z,27.6346,-97.2370,0.0,7.7,133.0,11.2,'11111222,11111222,11111222' 
TCOON,ioos:station:TCOON:005:1,2013-06-01T00:12:00Z,27.6346,-97.2370,0.0,7.0,134.0,10.1,'11111222,11111222,11111222' 
TCOON,ioos:station:TCOON:005:1,2013-06-01T00:18:00Z,27.6346,-97.2370,0.0,6.8,130.0,10.0,'11111222,11111222,11111222' 
TCOON,ioos:station:TCOON:005:1,2013-06-01T00:24:00Z,27.6346,-97.2370,0.0,7.9,127.0,11.0,'11111222,11111222,11111222' 
TCOON,ioos:station:TCOON:005:1,2013-06-01T00:30:00Z,27.6346,-97.2370,0.0,8.1,130.0,11.5,'11111222,11111222,11111222' 
TCOON,ioos:station:TCOON:005:1,2013-06-01T00:36:00Z,27.6346,-97.2370,0.0,8.2,129.0,10.9,'11111222,11111222,11111222' 
TCOON,ioos:station:TCOON:005:1,2013-06-01T00:42:00Z,27.6346,-97.2370,0.0,7.9,131.0,10.7,'11111222,11111222,11111222' 
TCOON,ioos:station:TCOON:005:1,2013-06-01T00:48:00Z,27.6346,-97.2370,0.0,7.0,131.0,9.1,'11111222,11111222,11111222' 
TCOON,ioos:station:TCOON:005:1,2013-06-01T00:54:00Z,27.6346,-97.2370,0.0,6.8,128.0,10.4,'11111222,11111222,11111222' 
TCOON,ioos:station:TCOON:005:1,2013-06-01T01:00:00Z,27.6346,-97.2370,0.0,8.2,130.0,,'1111122,1111122,1111122' 
TCOON,ioos:station:TCOON:005:1,2013-06-01T01:06:00Z,27.6346,-97.2370,0.0,8.4,127.0,10.5,'11111222,11111222,11111222' 
TCOON,ioos:station:TCOON:005:1,2013-06-01T01:12:00Z,27.6346,-97.2370,0.0,7.3,137.0,11.1,'11111222,11111222,11111222' 
TCOON,ioos:station:TCOON:005:1,2013-06-01T01:18:00Z,27.6346,-97.2370,0.0,7.1,125.0,9.1,'11111222,11111222,11111222' 
TCOON,ioos:station:TCOON:005:1,2013-06-01T01:24:00Z,27.6346,-97.2370,0.0,6.3,137.0,9.0,'11111222,11111222,11111222' 
TCOON,ioos:station:TCOON:005:1,2013-06-01T01:30:00Z,27.6346,-97.2370,0.0,7.2,130.0,10.2,'11111222,11111222,11111222' 
TCOON,ioos:station:TCOON:005:1,2013-06-01T01:36:00Z,27.6346,-97.2370,0.0,6.6,134.0,9.4,'11111222,11111222,11111222' 
TCOON,ioos:station:TCOON:005:1,2013-06-01T01:42:00Z,27.6346,-97.2370,0.0,7.6,136.0,10.5,'11111222,11111222,11111222' 
TCOON,ioos:station:TCOON:005:1,2013-06-01T01:48:00Z,27.6346,-97.2370,0.0,6.9,133.0,9.1,'11111222,11111222,11111222' 
TCOON,ioos:station:TCOON:005:1,2013-06-01T01:54:00Z,27.6346,-97.2370,0.0,7.8,132.0,10.6,'11111222,11111222,11111222' 
TCOON,ioos:station:TCOON:005:1,2013-06-01T02:00:00Z,27.6346,-97.2370,0.0,6.7,130.0,,'1111122,1111122,1111122' 
TCOON,ioos:station:TCOON:005:1,2013-06-01T02:06:00Z,27.6346,-97.2370,0.0,8.0,140.0,10.7,'11111222,11111222,11111222' 
TCOON,ioos:station:TCOON:005:1,2013-06-01T02:12:00Z,27.6346,-97.2370,0.0,5.9,133.0,10.2,'11111222,11111222,11111222' 
TCOON,ioos:station:TCOON:005:1,2013-06-01T02:18:00Z,27.6346,-97.2370,0.0,6.6,138.0,8.7,'11111222,11111222,11111222' 
TCOON,ioos:station:TCOON:005:1,2013-06-01T02:24:00Z,27.6346,-97.2370,0.0,7.2,129.0,9.3,'11111222,11111222,11111222' 
TCOON,ioos:station:TCOON:005:1,2013-06-01T02:30:00Z,27.6346,-97.2370,0.0,6.3,137.0,10.0,'11111222,11111222,11111222' 
TCOON,ioos:station:TCOON:005:1,2013-06-01T02:36:00Z,27.6346,-97.2370,0.0,7.3,128.0,8.7,'11111222,11111222,11111222' 
TCOON,ioos:station:TCOON:005:1,2013-06-01T02:42:00Z,27.6346,-97.2370,0.0,6.6,134.0,8.3,'11111222,11111222,11111222' 
TCOON,ioos:station:TCOON:005:1,2013-06-01T02:48:00Z,27.6346,-97.2370,0.0,7.4,128.0,9.6,'11111222,11111222,11111222' 
TCOON,ioos:station:TCOON:005:1,2013-06-01T02:54:00Z,27.6346,-97.2370,0.0,6.1,130.0,8.9,'11111222,11111222,11111222' 
TCOON,ioos:station:TCOON:005:1,2013-06-01T03:00:00Z,27.6346,-97.2370,0.0,7.2,130.0,,'1111122,1111122,1111122' 
TCOON,ioos:station:TCOON:005:1,2013-06-01T03:06:00Z,27.6346,-97.2370,0.0,6.6,129.0,9.9,'11111222,11111222,11111222' 
TCOON,ioos:station:TCOON:005:1,2013-06-01T03:12:00Z,27.6346,-97.2370,0.0,6.8,128.0,9.1,'11111222,11111222,11111222' 
TCOON,ioos:station:TCOON:005:1,2013-06-01T03:18:00Z,27.6346,-97.2370,0.0,6.3,128.0,9.2,'11111222,11111222,11111222' 
TCOON,ioos:station:TCOON:005:1,2013-06-01T03:24:00Z,27.6346,-97.2370,0.0,7.4,130.0,9.5,'11111222,11111222,11111222' 
TCOON,ioos:station:TCOON:005:1,2013-06-01T03:30:00Z,27.6346,-97.2370,0.0,7.5,126.0,9.3,'11111222,11111222,11111222' 
TCOON,ioos:station:TCOON:005:1,2013-06-01T03:36:00Z,27.6346,-97.2370,0.0,6.4,136.0,8.4,'11111222,11111222,11111222' 
TCOON,ioos:station:TCOON:005:1,2013-06-01T03:42:00Z,27.6346,-97.2370,0.0,7.4,127.0,10.2,'11111222,11111222,11111222' 
TCOON,ioos:station:TCOON:005:1,2013-06-01T03:48:00Z,27.6346,-97.2370,0.0,6.0,131.0,8.3,'11111222,11111222,11111222' 
TCOON,ioos:station:TCOON:005:1,2013-06-01T03:54:00Z,27.6346,-97.2370,0.0,6.6,135.0,8.8,'11111222,11111222,11111222' 
TCOON,ioos:station:TCOON:005:1,2013-06-01T04:00:00Z,27.6346,-97.2370,0.0,7.2,130.0,,'1111122,1111122,1111122' 
TCOON,ioos:station:TCOON:005:1,2013-06-01T04:06:00Z,27.6346,-97.2370,0.0,7.5,132.0,9.1,'11111222,11111222,11111222' 
TCOON,ioos:station:TCOON:005:1,2013-06-01T04:12:00Z,27.6346,-97.2370,0.0,6.8,135.0,8.8,'11111222,11111222,11111222' 
TCOON,ioos:station:TCOON:005:1,2013-06-01T04:18:00Z,27.6346,-97.2370,0.0,5.6,132.0,7.6,'11111222,11111222,11111222' 
TCOON,ioos:station:TCOON:005:1,2013-06-01T04:24:00Z,27.6346,-97.2370,0.0,7.3,138.0,10.0,'11111222,11111222,11111222' 
TCOON,ioos:station:TCOON:005:1,2013-06-01T04:30:00Z,27.6346,-97.2370,0.0,7.3,135.0,9.4,'11111222,11111222,11111222' 
TCOON,ioos:station:TCOON:005:1,2013-06-01T04:36:00Z,27.6346,-97.2370,0.0,6.1,133.0,8.6,'11111222,11111222,11111222' 
TCOON,ioos:station:TCOON:005:1,2013-06-01T04:42:00Z,27.6346,-97.2370,0.0,7.0,137.0,10.8,'11111222,11111222,11111222' 
TCOON,ioos:station:TCOON:005:1,2013-06-01T04:48:00Z,27.6346,-97.2370,0.0,7.2,142.0,10.7,'11111222,11111222,11111222' 
TCOON,ioos:station:TCOON:005:1,2013-06-01T04:54:00Z,27.6346,-97.2370,0.0,6.7,138.0,10.6,'11111222,11111222,11111222' 
TCOON,ioos:station:TCOON:005:1,2013-06-01T05:00:00Z,27.6346,-97.2370,0.0,6.2,130.0,,'1111122,1111122,1111122' 
TCOON,ioos:station:TCOON:005:1,2013-06-01T05:06:00Z,27.6346,-97.2370,0.0,8.6,140.0,10.8,'11111222,11111222,11111222' 
TCOON,ioos:station:TCOON:005:1,2013-06-01T05:12:00Z,27.6346,-97.2370,0.0,7.5,139.0,10.1,'11111222,11111222,11111222' 
TCOON,ioos:station:TCOON:005:1,2013-06-01T05:18:00Z,27.6346,-97.2370,0.0,6.7,143.0,10.0,'11111222,11111222,11111222' 
TCOON,ioos:station:TCOON:005:1,2013-06-01T05:24:00Z,27.6346,-97.2370,0.0,7.9,140.0,11.1,'11111222,11111222,11111222' 
TCOON,ioos:station:TCOON:005:1,2013-06-01T05:30:00Z,27.6346,-97.2370,0.0,7.8,142.0,11.3,'11111222,11111222,11111222' 
TCOON,ioos:station:TCOON:005:1,2013-06-01T05:36:00Z,27.6346,-97.2370,0.0,7.3,143.0,11.0,'11111222,11111222,11111222' 
TCOON,ioos:station:TCOON:005:1,2013-06-01T05:42:00Z,27.6346,-97.2370,0.0,7.9,145.0,9.7,'11111222,11111222,11111222' 
TCOON,ioos:station:TCOON:005:1,2013-06-01T05:48:00Z,27.6346,-97.2370,0.0,7.7,146.0,9.7,'11111222,11111222,11111222' 
TCOON,ioos:station:TCOON:005:1,2013-06-01T05:54:00Z,27.6346,-97.2370,0.0,8.2,146.0,12.2,'11111222,11111222,11111222' 
TCOON,ioos:station:TCOON:005:1,2013-06-01T06:00:00Z,27.6346,-97.2370,0.0,7.2,140.0,,'1111122,1111122,1111122' 
TCOON,ioos:station:TCOON:005:1,2013-06-01T06:06:00Z,27.6346,-97.2370,0.0,7.9,146.0,11.1,'11111222,11111222,11111222' 
TCOON,ioos:station:TCOON:005:1,2013-06-01T06:12:00Z,27.6346,-97.2370,0.0,7.7,144.0,11.1,'11111222,11111222,11111222' 
TCOON,ioos:station:TCOON:005:1,2013-06-01T06:18:00Z,27.6346,-97.2370,0.0,6.6,144.0,10.8,'11111222,11111222,11111222' 
TCOON,ioos:station:TCOON:005:1,2013-06-01T06:24:00Z,27.6346,-97.2370,0.0,8.9,146.0,11.3,'11111222,11111222,11111222' 
TCOON,ioos:station:TCOON:005:1,2013-06-01T06:30:00Z,27.6346,-97.2370,0.0,8.4,147.0,10.7,'11111222,11111222,11111222' 
TCOON,ioos:station:TCOON:005:1,2013-06-01T06:36:00Z,27.6346,-97.2370,0.0,8.2,150.0,11.0,'11111222,11111222,11111222' 
TCOON,ioos:station:TCOON:005:1,2013-06-01T06:42:00Z,27.6346,-97.2370,0.0,9.2,145.0,10.6,'11111222,11111222,11111222' 
TCOON,ioos:station:TCOON:005:1,2013-06-01T06:48:00Z,27.6346,-97.2370,0.0,6.4,143.0,9.1,'11111222,11111222,11111222' 
TCOON,ioos:station:TCOON:005:1,2013-06-01T06:54:00Z,27.6346,-97.2370,0.0,7.6,149.0,10.2,'11111222,11111222,11111222' 
TCOON,ioos:station:TCOON:005:1,2013-06-01T07:00:00Z,27.6346,-97.2370,0.0,8.2,150.0,,'1111122,1111122,1111122' 
TCOON,ioos:station:TCOON:005:1,2013-06-01T07:06:00Z,27.6346,-97.2370,0.0,6.7,149.0,10.8,'11111222,11111222,11111222' 
TCOON,ioos:station:TCOON:005:1,2013-06-01T07:12:00Z,27.6346,-97.2370,0.0,8.0,147.0,10.1,'11111222,11111222,11111222' 
TCOON,ioos:station:TCOON:005:1,2013-06-01T07:18:00Z,27.6346,-97.2370,0.0,7.0,153.0,10.8,'11111222,11111222,11111222' 
TCOON,ioos:station:TCOON:005:1,2013-06-01T07:24:00Z,27.6346,-97.2370,0.0,5.9,151.0,8.0,'11111222,11111222,11111222' 
TCOON,ioos:station:TCOON:005:1,2013-06-01T07:30:00Z,27.6346,-97.2370,0.0,8.8,146.0,10.8,'11111222,11111222,11111222' 
TCOON,ioos:station:TCOON:005:1,2013-06-01T07:36:00Z,27.6346,-97.2370,0.0,8.2,148.0,11.0,'11111222,11111222,11111222' 
TCOON,ioos:station:TCOON:005:1,2013-06-01T07:42:00Z,27.6346,-97.2370,0.0,7.8,148.0,11.2,'11111222,11111222,11111222' 
TCOON,ioos:station:TCOON:005:1,2013-06-01T07:48:00Z,27.6346,-97.2370,0.0,8.7,153.0,11.9,'11111222,11111222,11111222' 
TCOON,ioos:station:TCOON:005:1,2013-06-01T07:54:00Z,27.6346,-97.2370,0.0,9.1,152.0,11.6,'11111222,11111222,11111222' 
TCOON,ioos:station:TCOON:005:1,2013-06-01T08:00:00Z,27.6346,-97.2370,0.0,8.2,150.0,,'1111122,1111122,1111122' 
TCOON,ioos:station:TCOON:005:1,2013-06-01T08:06:00Z,27.6346,-97.2370,0.0,9.3,150.0,12.1,'11111222,11111222,11111222' 
TCOON,ioos:station:TCOON:005:1,2013-06-01T08:12:00Z,27.6346,-97.2370,0.0,8.3,155.0,11.9,'11111222,11111222,11111222' 
TCOON,ioos:station:TCOON:005:1,2013-06-01T08:18:00Z,27.6346,-97.2370,0.0,8.0,149.0,10.9,'11111222,11111222,11111222' 
TCOON,ioos:station:TCOON:005:1,2013-06-01T08:24:00Z,27.6346,-97.2370,0.0,5.9,151.0,10.8,'11111222,11111222,11111222' 
TCOON,ioos:station:TCOON:005:1,2013-06-01T08:30:00Z,27.6346,-97.2370,0.0,8.1,151.0,12.2,'11111222,11111222,11111222' 
TCOON,ioos:station:TCOON:005:1,2013-06-01T08:36:00Z,27.6346,-97.2370,0.0,9.4,147.0,12.2,'11111222,11111222,11111222' 
TCOON,ioos:station:TCOON:005:1,2013-06-01T08:42:00Z,27.6346,-97.2370,0.0,8.1,150.0,10.4,'11111222,11111222,11111222' 
TCOON,ioos:station:TCOON:005:1,2013-06-01T08:48:00Z,27.6346,-97.2370,0.0,8.9,151.0,11.6,'11111222,11111222,11111222' 
TCOON,ioos:station:TCOON:005:1,2013-06-01T08:54:00Z,27.6346,-97.2370,0.0,8.2,150.0,9.9,'11111222,11111222,11111222' 
TCOON,ioos:station:TCOON:005:1,2013-06-01T09:00:00Z,27.6346,-97.2370,0.0,9.3,150.0,,'1111122,1111122,1111122' 
TCOON,ioos:station:TCOON:005:1,2013-06-01T09:06:00Z,27.6346,-97.2370,0.0,7.1,156.0,10.0,'11111222,11111222,11111222' 
TCOON,ioos:station:TCOON:005:1,2013-06-01T09:12:00Z,27.6346,-97.2370,0.0,8.4,151.0,10.2,'11111222,11111222,11111222' 
TCOON,ioos:station:TCOON:005:1,2013-06-01T09:18:00Z,27.6346,-97.2370,0.0,7.2,153.0,10.7,'11111222,11111222,11111222' 
TCOON,ioos:station:TCOON:005:1,2013-06-01T09:24:00Z,27.6346,-97.2370,0.0,7.5,152.0,9.8,'11111222,11111222,11111222' 
TCOON,ioos:station:TCOON:005:1,2013-06-01T09:30:00Z,27.6346,-97.2370,0.0,6.7,151.0,8.8,'11111222,11111222,11111222' 
TCOON,ioos:station:TCOON:005:1,2013-06-01T09:36:00Z,27.6346,-97.2370,0.0,6.2,152.0,9.6,'11111222,11111222,11111222' 
TCOON,ioos:station:TCOON:005:1,2013-06-01T09:42:00Z,27.6346,-97.2370,0.0,8.3,153.0,11.1,'11111222,11111222,11111222' 
TCOON,ioos:station:TCOON:005:1,2013-06-01T09:48:00Z,27.6346,-97.2370,0.0,7.1,152.0,10.1,'11111222,11111222,11111222' 
TCOON,ioos:station:TCOON:005:1,2013-06-01T09:54:00Z,27.6346,-97.2370,0.0,7.2,151.0,10.6,'11111222,11111222,11111222' 
TCOON,ioos:station:TCOON:005:1,2013-06-01T10:00:00Z,27.6346,-97.2370,0.0,6.2,150.0,,'1111122,1111122,1111122' 
TCOON,ioos:station:TCOON:005:1,2013-06-01T10:06:00Z,27.6346,-97.2370,0.0,8.1,155.0,10.4,'11111222,11111222,11111222' 
TCOON,ioos:station:TCOON:005:1,2013-06-01T10:12:00Z,27.6346,-97.2370,0.0,7.5,163.0,10.6,'11111222,11111222,11111222' 
TCOON,ioos:station:TCOON:005:1,2013-06-01T10:18:00Z,27.6346,-97.2370,0.0,6.3,161.0,9.5,'11111222,11111222,11111222' 
TCOON,ioos:station:TCOON:005:1,2013-06-01T10:24:00Z,27.6346,-97.2370,0.0,7.7,159.0,10.7,'11111222,11111222,11111222' 
TCOON,ioos:station:TCOON:005:1,2013-06-01T10:30:00Z,27.6346,-97.2370,0.0,6.2,159.0,10.5,'11111222,11111222,11111222' 
TCOON,ioos:station:TCOON:005:1,2013-06-01T10:36:00Z,27.6346,-97.2370,0.0,7.8,150.0,9.3,'11111222,11111222,11111222' 
TCOON,ioos:station:TCOON:005:1,2013-06-01T10:42:00Z,27.6346,-97.2370,0.0,7.3,152.0,9.9,'11111222,11111222,11111222' 
TCOON,ioos:station:TCOON:005:1,2013-06-01T10:48:00Z,27.6346,-97.2370,0.0,6.8,147.0,10.1,'11111222,11111222,11111222' 
TCOON,ioos:station:TCOON:005:1,2013-06-01T10:54:00Z,27.6346,-97.2370,0.0,6.7,152.0,9.9,'11111222,11111222,11111222' 
TCOON,ioos:station:TCOON:005:1,2013-06-01T11:00:00Z,27.6346,-97.2370,0.0,7.7,150.0,,'1111122,1111122,1111122' 
TCOON,ioos:station:TCOON:005:1,2013-06-01T11:06:00Z,27.6346,-97.2370,0.0,6.6,156.0,9.6,'11111222,11111222,11111222' 
TCOON,ioos:station:TCOON:005:1,2013-06-01T11:12:00Z,27.6346,-97.2370,0.0,6.4,155.0,9.2,'11111222,11111222,11111222' 
TCOON,ioos:station:TCOON:005:1,2013-06-01T11:18:00Z,27.6346,-97.2370,0.0,7.9,149.0,10.0,'11111222,11111222,11111222' 
TCOON,ioos:station:TCOON:005:1,2013-06-01T11:24:00Z,27.6346,-97.2370,0.0,7.6,154.0,9.0,'11111222,11111222,11111222' 
TCOON,ioos:station:TCOON:005:1,2013-06-01T11:30:00Z,27.6346,-97.2370,0.0,7.0,156.0,10.7,'11111222,11111222,11111222' 
TCOON,ioos:station:TCOON:005:1,2013-06-01T11:36:00Z,27.6346,-97.2370,0.0,6.6,156.0,9.7,'11111222,11111222,11111222' 
TCOON,ioos:station:TCOON:005:1,2013-06-01T11:42:00Z,27.6346,-97.2370,0.0,7.7,154.0,9.4,'11111222,11111222,11111222' 
TCOON,ioos:station:TCOON:005:1,2013-06-01T11:48:00Z,27.6346,-97.2370,0.0,6.1,155.0,10.4,'11111222,11111222,11111222' 
TCOON,ioos:station:TCOON:005:1,2013-06-01T11:54:00Z,27.6346,-97.2370,0.0,6.2,160.0,9.4,'11111222,11111222,11111222' 
TCOON,ioos:station:TCOON:005:1,2013-06-01T12:00:00Z,27.6346,-97.2370,0.0,6.7,160.0,,'1111122,1111122,1111122' 
TCOON,ioos:station:TCOON:005:1,2013-06-01T12:06:00Z,27.6346,-97.2370,0.0,7.1,158.0,10.4,'11111222,11111222,11111222' 
TCOON,ioos:station:TCOON:005:1,2013-06-01T12:12:00Z,27.6346,-97.2370,0.0,7.5,153.0,10.3,'11111222,11111222,11111222' 
TCOON,ioos:station:TCOON:005:1,2013-06-01T12:18:00Z,27.6346,-97.2370,0.0,6.6,155.0,10.6,'11111222,11111222,11111222' 
TCOON,ioos:station:TCOON:005:1,2013-06-01T12:24:00Z,27.6346,-97.2370,0.0,6.5,153.0,9.1,'11111222,11111222,11111222' 
TCOON,ioos:station:TCOON:005:1,2013-06-01T12:30:00Z,27.6346,-97.2370,0.0,6.0,157.0,9.4,'11111222,11111222,11111222' 
TCOON,ioos:station:TCOON:005:1,2013-06-01T12:36:00Z,27.6346,-97.2370,0.0,6.8,160.0,9.9,'11111222,11111222,11111222' 
TCOON,ioos:station:TCOON:005:1,2013-06-01T12:42:00Z,27.6346,-97.2370,0.0,6.0,160.0,8.7,'11111222,11111222,11111222' 
TCOON,ioos:station:TCOON:005:1,2013-06-01T12:48:00Z,27.6346,-97.2370,0.0,6.1,158.0,8.8,'11111222,11111222,11111222' 
TCOON,ioos:station:TCOON:005:1,2013-06-01T12:54:00Z,27.6346,-97.2370,0.0,6.4,155.0,10.4,'11111222,11111222,11111222' 
TCOON,ioos:station:TCOON:005:1,2013-06-01T13:00:00Z,27.6346,-97.2370,0.0,6.7,160.0,,'1111122,1111122,1111122' 
TCOON,ioos:station:TCOON:005:1,2013-06-01T13:06:00Z,27.6346,-97.2370,0.0,6.2,153.0,9.5,'11111222,11111222,11111222' 
TCOON,ioos:station:TCOON:005:1,2013-06-01T13:12:00Z,27.6346,-97.2370,0.0,8.2,159.0,11.6,'11111222,11111222,11111222' 
TCOON,ioos:station:TCOON:005:1,2013-06-01T13:18:00Z,27.6346,-97.2370,0.0,5.9,161.0,12.2,'11111222,11111222,11111222' 
TCOON,ioos:station:TCOON:005:1,2013-06-01T13:24:00Z,27.6346,-97.2370,0.0,7.3,160.0,10.1,'11111222,11111222,11111222' 
TCOON,ioos:station:TCOON:005:1,2013-06-01T13:30:00Z,27.6346,-97.2370,0.0,6.3,156.0,9.3,'11111222,11111222,11111222' 
TCOON,ioos:station:TCOON:005:1,2013-06-01T13:36:00Z,27.6346,-97.2370,0.0,7.3,162.0,10.6,'11111222,11111222,11111222' 
TCOON,ioos:station:TCOON:005:1,2013-06-01T13:42:00Z,27.6346,-97.2370,0.0,7.6,156.0,9.6,'11111222,11111222,11111222' 
TCOON,ioos:station:TCOON:005:1,2013-06-01T13:48:00Z,27.6346,-97.2370,0.0,6.0,154.0,11.1,'11111222,11111222,11111222' 
TCOON,ioos:station:TCOON:005:1,2013-06-01T13:54:00Z,27.6346,-97.2370,0.0,7.7,150.0,10.3,'11111222,11111222,11111222' 
TCOON,ioos:station:TCOON:005:1,2013-06-01T14:00:00Z,27.6346,-97.2370,0.0,7.2,160.0,,'1111122,1111122,1111122' 
TCOON,ioos:station:TCOON:005:1,2013-06-01T14:06:00Z,27.6346,-97.2370,0.0,6.0,159.0,10.4,'11111222,11111222,11111222' 
TCOON,ioos:station:TCOON:005:1,2013-06-01T14:12:00Z,27.6346,-97.2370,0.0,5.7,163.0,11.5,'11111222,11111222,11111222' 
TCOON,ioos:station:TCOON:005:1,2013-06-01T14:18:00Z,27.6346,-97.2370,0.0,7.5,157.0,10.8,'11111222,11111222,11111222' 
TCOON,ioos:station:TCOON:005:1,2013-06-01T14:24:00Z,27.6346,-97.2370,0.0,8.3,164.0,10.4,'11111222,11111222,11111222' 
TCOON,ioos:station:TCOON:005:1,2013-06-01T14:30:00Z,27.6346,-97.2370,0.0,6.9,162.0,10.4,'11111222,11111222,11111222' 
TCOON,ioos:station:TCOON:005:1,2013-06-01T14:36:00Z,27.6346,-97.2370,0.0,8.1,152.0,10.7,'11111222,11111222,11111222' 
TCOON,ioos:station:TCOON:005:1,2013-06-01T14:42:00Z,27.6346,-97.2370,0.0,7.1,157.0,11.7,'11111222,11111222,11111222' 
TCOON,ioos:station:TCOON:005:1,2013-06-01T14:48:00Z,27.6346,-97.2370,0.0,7.3,172.0,9.7,'11111222,11111222,11111222' 
TCOON,ioos:station:TCOON:005:1,2013-06-01T14:54:00Z,27.6346,-97.2370,0.0,7.5,161.0,10.4,'11111222,11111222,11111222' 
TCOON,ioos:station:TCOON:005:1,2013-06-01T15:00:00Z,27.6346,-97.2370,0.0,7.2,160.0,,'1111122,1111122,1111122' 
TCOON,ioos:station:TCOON:005:1,2013-06-01T15:06:00Z,27.6346,-97.2370,0.0,7.5,154.0,9.3,'11111222,11111222,11111222' 
TCOON,ioos:station:TCOON:005:1,2013-06-01T15:12:00Z,27.6346,-97.2370,0.0,6.9,158.0,9.7,'11111222,11111222,11111222' 
TCOON,ioos:station:TCOON:005:1,2013-06-01T15:18:00Z,27.6346,-97.2370,0.0,6.8,152.0,9.5,'11111222,11111222,11111222' 
TCOON,ioos:station:TCOON:005:1,2013-06-01T15:24:00Z,27.6346,-97.2370,0.0,7.8,165.0,10.8,'11111222,11111222,11111222' 
TCOON,ioos:station:TCOON:005:1,2013-06-01T15:30:00Z,27.6346,-97.2370,0.0,7.9,152.0,9.6,'11111222,11111222,11111222' 
TCOON,ioos:station:TCOON:005:1,2013-06-01T15:36:00Z,27.6346,-97.2370,0.0,8.1,151.0,10.5,'11111222,11111222,11111222' 
TCOON,ioos:station:TCOON:005:1,2013-06-01T15:42:00Z,27.6346,-97.2370,0.0,8.7,160.0,10.9,'11111222,11111222,11111222' 
TCOON,ioos:station:TCOON:005:1,2013-06-01T15:48:00Z,27.6346,-97.2370,0.0,8.4,154.0,10.7,'11111222,11111222,11111222' 
TCOON,ioos:station:TCOON:005:1,2013-06-01T15:54:00Z,27.6346,-97.2370,0.0,8.7,152.0,12.2,'11111222,11111222,11111222' 
TCOON,ioos:station:TCOON:005:1,2013-06-01T16:00:00Z,27.6346,-97.2370,0.0,8.2,150.0,,'1111122,1111122,1111122' 
TCOON,ioos:station:TCOON:005:1,2013-06-01T16:06:00Z,27.6346,-97.2370,0.0,8.2,146.0,10.0,'11111222,11111222,11111222' 
TCOON,ioos:station:TCOON:005:1,2013-06-01T16:12:00Z,27.6346,-97.2370,0.0,7.2,154.0,10.2,'11111222,11111222,11111222' 
TCOON,ioos:station:TCOON:005:1,2013-06-01T16:18:00Z,27.6346,-97.2370,0.0,7.7,161.0,9.9,'11111222,11111222,11111222' 
TCOON,ioos:station:TCOON:005:1,2013-06-01T16:24:00Z,27.6346,-97.2370,0.0,7.3,149.0,9.8,'11111222,11111222,11111222' 
TCOON,ioos:station:TCOON:005:1,2013-06-01T16:30:00Z,27.6346,-97.2370,0.0,6.7,152.0,9.7,'11111222,11111222,11111222' 
TCOON,ioos:station:TCOON:005:1,2013-06-01T16:36:00Z,27.6346,-97.2370,0.0,7.8,157.0,9.9,'11111222,11111222,11111222' 
TCOON,ioos:station:TCOON:005:1,2013-06-01T16:42:00Z,27.6346,-97.2370,0.0,7.0,155.0,9.6,'11111222,11111222,11111222' 
TCOON,ioos:station:TCOON:005:1,2013-06-01T16:48:00Z,27.6346,-97.2370,0.0,8.2,146.0,11.1,'11111222,11111222,11111222' 
TCOON,ioos:station:TCOON:005:1,2013-06-01T16:54:00Z,27.6346,-97.2370,0.0,7.5,147.0,9.9,'11111222,11111222,11111222' 
TCOON,ioos:station:TCOON:005:1,2013-06-01T17:00:00Z,27.6346,-97.2370,0.0,7.7,160.0,,'1111122,1111122,1111122' 
TCOON,ioos:station:TCOON:005:1,2013-06-01T17:06:00Z,27.6346,-97.2370,0.0,7.3,153.0,9.2,'11111222,11111222,11111222' 
TCOON,ioos:station:TCOON:005:1,2013-06-01T17:12:00Z,27.6346,-97.2370,0.0,6.5,144.0,9.2,'11111222,11111222,11111222' 
TCOON,ioos:station:TCOON:005:1,2013-06-01T17:18:00Z,27.6346,-97.2370,0.0,7.2,155.0,10.5,'11111222,11111222,11111222' 
TCOON,ioos:station:TCOON:005:1,2013-06-01T17:24:00Z,27.6346,-97.2370,0.0,7.2,149.0,10.1,'11111222,11111222,11111222' 
TCOON,ioos:station:TCOON:005:1,2013-06-01T17:30:00Z,27.6346,-97.2370,0.0,7.6,154.0,10.1,'11111222,11111222,11111222' 
TCOON,ioos:station:TCOON:005:1,2013-06-01T17:36:00Z,27.6346,-97.2370,0.0,7.6,149.0,9.9,'11111222,11111222,11111222' 
TCOON,ioos:station:TCOON:005:1,2013-06-01T17:42:00Z,27.6346,-97.2370,0.0,6.5,143.0,10.0,'11111222,11111222,11111222' 
TCOON,ioos:station:TCOON:005:1,2013-06-01T17:48:00Z,27.6346,-97.2370,0.0,7.6,142.0,9.5,'11111222,11111222,11111222' 
TCOON,ioos:station:TCOON:005:1,2013-06-01T17:54:00Z,27.6346,-97.2370,0.0,6.6,140.0,10.0,'11111222,11111222,11111222' 
TCOON,ioos:station:TCOON:005:1,2013-06-01T18:00:00Z,27.6346,-97.2370,0.0,7.7,150.0,,'1111122,1111122,1111122' 
TCOON,ioos:station:TCOON:005:1,2013-06-01T18:06:00Z,27.6346,-97.2370,0.0,8.3,149.0,11.1,'11111222,11111222,11111222' 
TCOON,ioos:station:TCOON:005:1,2013-06-01T18:12:00Z,27.6346,-97.2370,0.0,7.4,148.0,10.1,'11111222,11111222,11111222' 
TCOON,ioos:station:TCOON:005:1,2013-06-01T18:18:00Z,27.6346,-97.2370,0.0,7.2,147.0,10.4,'11111222,11111222,11111222' 
TCOON,ioos:station:TCOON:005:1,2013-06-01T18:24:00Z,27.6346,-97.2370,0.0,8.4,136.0,10.3,'11111222,11111222,11111222' 
TCOON,ioos:station:TCOON:005:1,2013-06-01T18:30:00Z,27.6346,-97.2370,0.0,7.8,147.0,10.9,'11111222,11111222,11111222' 
TCOON,ioos:station:TCOON:005:1,2013-06-01T18:36:00Z,27.6346,-97.2370,0.0,6.8,135.0,11.2,'11111222,11111222,11111222' 
TCOON,ioos:station:TCOON:005:1,2013-06-01T18:42:00Z,27.6346,-97.2370,0.0,8.7,135.0,10.5,'11111222,11111222,11111222' 
TCOON,ioos:station:TCOON:005:1,2013-06-01T18:48:00Z,27.6346,-97.2370,0.0,7.9,139.0,10.3,'11111222,11111222,11111222' 
TCOON,ioos:station:TCOON:005:1,2013-06-01T18:54:00Z,27.6346,-97.2370,0.0,8.5,133.0,10.3,'11111222,11111222,11111222' 
TCOON,ioos:station:TCOON:005:1,2013-06-01T19:00:00Z,27.6346,-97.2370,0.0,6.7,140.0,,'1111122,1111122,1111122' 
TCOON,ioos:station:TCOON:005:1,2013-06-01T19:06:00Z,27.6346,-97.2370,0.0,7.2,133.0,9.7,'11111222,11111222,11111222' 
TCOON,ioos:station:TCOON:005:1,2013-06-01T19:12:00Z,27.6346,-97.2370,0.0,9.2,126.0,11.4,'11111222,11111222,11111222' 
TCOON,ioos:station:TCOON:005:1,2013-06-01T19:18:00Z,27.6346,-97.2370,0.0,8.5,127.0,10.7,'11111222,11111222,11111222' 
TCOON,ioos:station:TCOON:005:1,2013-06-01T19:24:00Z,27.6346,-97.2370,0.0,6.9,135.0,10.7,'11111222,11111222,11111222' 
TCOON,ioos:station:TCOON:005:1,2013-06-01T19:30:00Z,27.6346,-97.2370,0.0,9.2,138.0,11.4,'11111222,11111222,11111222' 
TCOON,ioos:station:TCOON:005:1,2013-06-01T19:36:00Z,27.6346,-97.2370,0.0,7.6,145.0,10.6,'11111222,11111222,11111222' 
TCOON,ioos:station:TCOON:005:1,2013-06-01T19:42:00Z,27.6346,-97.2370,0.0,7.4,132.0,9.8,'11111222,11111222,11111222' 
TCOON,ioos:station:TCOON:005:1,2013-06-01T19:48:00Z,27.6346,-97.2370,0.0,7.5,137.0,11.8,'11111222,11111222,11111222' 
TCOON,ioos:station:TCOON:005:1,2013-06-01T19:54:00Z,27.6346,-97.2370,0.0,8.2,132.0,11.0,'11111222,11111222,11111222' 
TCOON,ioos:station:TCOON:005:1,2013-06-01T20:00:00Z,27.6346,-97.2370,0.0,7.7,150.0,,'1111122,1111122,1111122' 
TCOON,ioos:station:TCOON:005:1,2013-06-01T20:06:00Z,27.6346,-97.2370,0.0,7.8,137.0,11.3,'11111222,11111222,11111222' 
TCOON,ioos:station:TCOON:005:1,2013-06-01T20:12:00Z,27.6346,-97.2370,0.0,8.0,127.0,11.4,'11111222,11111222,11111222' 
TCOON,ioos:station:TCOON:005:1,2013-06-01T20:18:00Z,27.6346,-97.2370,0.0,8.7,129.0,11.2,'11111222,11111222,11111222' 